Location: Winthrop
(48.4780°N, 120.1850°W)
Time: 03:07:13
(UTC-08:00)

N. Korean satellite - Visible Passes

Search period start: 06 December 2021 00:00
Search period end: 16 December 2021 00:00
Orbit: 446 x 495 km, 97.3° (Epoch: 06 December)

Date Brightness Start Highest point End Pass type
(mag) Time Alt. Az. Time Alt. Az. Time Alt. Az.
06 Dec 6.6 05:17:25 10° NNE 05:20:47 70° E 05:24:09 10° S visible
06 Dec 8.5 06:53:15 10° WNW 06:53:28 10° WNW 06:53:40 10° WNW visible
06 Dec 9.7 17:29:37 10° SW 17:31:36 14° W 17:33:35 10° NW visible
07 Dec 8.3 04:49:09 10° NNE 04:52:10 30° E 04:55:11 10° SSE visible
07 Dec 7.7 06:22:43 10° NNW 06:25:12 19° WNW 06:27:42 10° WSW visible
07 Dec 8.8 16:59:46 10° SSW 17:02:52 29° W 17:05:57 10° NW visible
08 Dec 9.6 04:21:30 10° NE 04:23:26 14° E 04:25:21 10° SE visible
08 Dec 6.8 05:53:38 10° N 05:56:50 39° WNW 06:00:00 10° SW visible
09 Dec 6.3 05:24:55 10° NNE 05:28:19 88° E 05:31:43 10° SSW visible
09 Dec 9.9 17:37:54 10° WSW 17:39:12 12° W 17:40:30 10° WNW visible
10 Dec 8.0 04:56:32 10° NNE 05:00:21 33° SE 05:02:52 10° SSE visible
10 Dec 8.3 06:30:27 10° NNW 06:34:30 11° W 06:34:50 10° WSW visible
10 Dec 9.1 17:07:33 10° SSW 17:10:24 24° W 17:13:15 10° NW visible
11 Dec 9.4 04:32:10 15° ESE 04:32:10 15° ESE 04:33:19 10° SE visible
11 Dec 8.2 06:01:12 10° N 06:06:17 17° SW 06:07:20 10° SW visible
11 Dec 7.5 16:38:20 10° S 16:41:44 52° W 16:45:05 10° NNW visible
12 Dec 8.2 05:32:23 10° N 05:37:54 21° SSW 05:39:09 10° SSW visible
13 Dec 8.7 05:09:24 18° SSE 05:09:24 18° SSE 05:10:26 10° S visible
13 Dec9.006:43:30WSW06:43:30WSW06:37:24NNWvisible
13 Dec 9.5 17:15:18 10° SW 17:17:53 20° W 17:20:27 10° NW visible
14 Dec 9.5 04:40:51 11° SE 04:40:51 11° SE 04:41:06 10° SE visible
14 Dec9.106:14:57SW06:14:57SW06:08:14Nvisible
14 Dec 7.9 16:45:51 10° S 16:49:08 41° W 16:52:24 10° NNW visible
15 Dec 9.0 05:46:20 11° SSW 05:46:20 11° SSW 05:46:30 10° SSW visible
